| time (UTC) | temp F | wind direction | speed MPH | gust MPH | rain 1hr in | rain 24hr in | rain mn in | humidity % | barometer mb |
| 20260902060518 | 64 | 306 | 12.0 | 19.0 | 0.00 | 0.00 | 0.00 | 87 | 1019.9 |
| 20260902055522 | 64 | 283 | 15.0 | 26.0 | 0.00 | 0.00 | 0.00 | 89 | 1019.8 |
| 20260902054523 | 63 | 268 | 16.0 | 22.0 | 0.00 | 0.00 | 0.00 | 90 | 1019.9 |
| 20260902053519 | 62 | 279 | 14.0 | 21.0 | 0.00 | 0.00 | 0.00 | 91 | 1019.8 |
| 20260902052519 | 62 | 287 | 12.0 | 21.0 | 0.00 | 0.00 | 0.00 | 91 | 1019.7 |
| 20260902051557 | 62 | 279 | 11.0 | 14.0 | 0.00 | 0.00 | 0.00 | 91 | 1019.7 |
| 20260902050519 | 62 | 271 | 10.0 | 15.0 | 0.00 | 0.00 | 0.00 | 92 | 1019.7 |
| 20260902045518 | 62 | 273 | 8.0 | 15.0 | 0.00 | 0.00 | 0.00 | 91 | 1019.6 |
| 20260902044542 | 62 | 269 | 6.0 | 9.0 | 0.00 | 0.00 | 0.00 | 91 | 1019.6 |
| 20260902043521 | 62 | 186 | 4.0 | 8.0 | 0.00 | 0.00 | 0.00 | 91 | 1019.5 |
| 20260902042541 | 62 | 336 | 4.0 | 8.0 | 0.00 | 0.00 | 0.00 | 91 | 1019.3 |
| 20260902041517 | 61 | 322 | 5.0 | 8.0 | 0.00 | 0.00 | 0.00 | 92 | 1019.3 |
| 20260902040522 | 61 | 351 | 4.0 | 9.0 | 0.00 | 0.00 | 0.00 | 91 | 1019.3 |
| 20260902035518 | 61 | 331 | 5.0 | 8.0 | 0.00 | 0.00 | 0.00 | 91 | 1019.3 |
| 20260902034540 | 61 | 304 | 5.0 | 11.0 | 0.00 | 0.00 | 0.00 | 91 | 1019.3 |
| 20260902033518 | 61 | 348 | 6.0 | 9.0 | 0.00 | 0.00 | 0.00 | 91 | 1019.2 |
| 20260902032521 | 61 | 265 | 3.0 | 5.0 | 0.00 | 0.00 | 0.00 | 92 | 1019.3 |
| 20260902031517 | 61 | 316 | 5.0 | 10.0 | 0.00 | 0.00 | 0.00 | 92 | 1019.2 |
| 20260902025517 | 61 | 297 | 9.0 | 20.0 | 0.00 | 0.00 | 0.00 | 92 | 1019.4 |
| 20260902024522 | 60 | 337 | 6.0 | 10.0 | 0.00 | 0.00 | 0.00 | 91 | 1019.2 |
| 20260902023518 | 60 | 270 | 4.0 | 7.0 | 0.00 | 0.00 | 0.00 | 91 | 1019.2 |
| 20260902022519 | 60 | 327 | 8.0 | 18.0 | 0.00 | 0.00 | 0.00 | 90 | 1019.0 |
| 20260902021521 | 60 | 183 | 3.0 | 5.0 | 0.00 | 0.00 | 0.00 | 90 | 1019.0 |
| 20260902020541 | 60 | 139 | 7.0 | 11.0 | 0.00 | 0.00 | 0.00 | 89 | 1018.9 |
| 20260902015519 | 61 | 137 | 3.0 | 7.0 | 0.00 | 0.00 | 0.00 | 89 | 1018.8 |
| 20260902014517 | 61 | 20 | 13.0 | 21.0 | 0.00 | 0.00 | 0.00 | 90 | 1018.8 |
| 20260902013517 | 60 | 22 | 9.0 | 11.0 | 0.00 | 0.00 | 0.00 | 89 | 1018.8 |
| 20260902012521 | 61 | 57 | 4.0 | 10.0 | 0.00 | 0.00 | 0.00 | 88 | 1018.9 |
| 20260902011517 | 62 | 151 | 6.0 | 9.0 | 0.00 | 0.00 | 0.00 | 87 | 1018.8 |
| 20260902010517 | 62 | 176 | 2.0 | 7.0 | 0.00 | 0.00 | 0.00 | 87 | 1018.6 |
| 20260902005517 | 62 | 14 | 5.0 | 8.0 | 0.00 | 0.00 | 0.00 | 88 | 1018.5 |
| 20260902004518 | 62 | 349 | 11.0 | 17.0 | 0.00 | 0.00 | 0.00 | 88 | 1018.5 |
| 20260902003518 | 62 | 329 | 5.0 | 7.0 | 0.00 | 0.00 | 0.00 | 88 | 1018.5 |
| 20260902002522 | 61 | 26 | 7.0 | 11.0 | 0.00 | 0.00 | 0.00 | 87 | 1018.5 |
| 20260902001519 | 62 | 153 | 3.0 | 7.0 | 0.00 | 0.00 | 0.00 | 87 | 1018.6 |
| 20260902000521 | 62 | 128 | 2.0 | 5.0 | 0.00 | 0.00 | 0.00 | 85 | 1018.6 |
| 20260901235518 | 63 | 156 | 1.0 | 5.0 | 0.00 | 0.00 | 0.00 | 84 | 1018.5 |
| 20260901234522 | 64 | 161 | 3.0 | 7.0 | 0.00 | 0.00 | 0.00 | 83 | 1018.4 |
| 20260901233518 | 64 | 26 | 3.0 | 5.0 | 0.00 | 0.00 | 0.00 | 82 | 1018.3 |
| 20260901232519 | 64 | 359 | 5.0 | 8.0 | 0.00 | 0.00 | 0.00 | 81 | 1018.2 |
| 20260901231517 | 64 | 3 | 9.0 | 11.0 | 0.00 | 0.00 | 0.00 | 82 | 1018.2 |
| 20260901230521 | 64 | 12 | 10.0 | 12.0 | 0.00 | 0.00 | 0.00 | 82 | 1018.1 |
| 20260901225518 | 64 | 14 | 9.0 | 11.0 | 0.00 | 0.00 | 0.00 | 83 | 1018.2 |
| 20260901224522 | 63 | 7 | 5.0 | 8.0 | 0.00 | 0.00 | 0.00 | 85 | 1018.3 |
| 20260901223518 | 64 | 350 | 2.0 | 7.0 | 0.00 | 0.00 | 0.00 | 84 | 1018.4 |
| 20260901222521 | 64 | 289 | 2.0 | 7.0 | 0.00 | 0.00 | 0.00 | 84 | 1018.5 |
| 20260901221517 | 64 | 307 | 5.0 | 9.0 | 0.00 | 0.00 | 0.00 | 84 | 1018.5 |
| 20260901220539 | 64 | 328 | 5.0 | 11.0 | 0.00 | 0.00 | 0.00 | 84 | 1018.4 |
| 20260901215517 | 64 | 314 | 5.0 | 11.0 | 0.00 | 0.00 | 0.00 | 84 | 1018.4 |
| 20260901214521 | 64 | 313 | 6.0 | 10.0 | 0.00 | 0.00 | 0.00 | 84 | 1018.3 |
| 20260901213538 | 64 | 299 | 1.0 | 5.0 | 0.00 | 0.00 | 0.00 | 84 | 1018.3 |
| 20260901212518 | 65 | 299 | 1.0 | 5.0 | 0.00 | 0.00 | 0.00 | 84 | 1018.2 |
| 20260901211517 | 65 | 317 | 1.0 | 5.0 | 0.00 | 0.00 | 0.00 | 83 | 1018.2 |
| 20260901210521 | 65 | 320 | 2.0 | 5.0 | 0.00 | 0.00 | 0.00 | 83 | 1018.2 |
| 20260901205518 | 65 | 198 | 2.0 | 4.0 | 0.00 | 0.00 | 0.00 | 82 | 1018.1 |
| 20260901204522 | 65 | 185 | 4.0 | 6.0 | 0.00 | 0.00 | 0.00 | 82 | 1018.1 |
| 20260901203518 | 66 | 153 | 5.0 | 7.0 | 0.00 | 0.00 | 0.00 | 82 | 1017.9 |
| 20260901202523 | 66 | 146 | 5.0 | 7.0 | 0.00 | 0.00 | 0.00 | 81 | 1017.9 |
| 20260901201517 | 66 | 153 | 2.0 | 5.0 | 0.00 | 0.00 | 0.00 | 80 | 1017.8 |
| 20260901200518 | 67 | 170 | 1.0 | 5.0 | 0.00 | 0.00 | 0.00 | 79 | 1017.8 |
| 20260901195521 | 68 | 190 | 5.0 | 7.0 | 0.00 | 0.00 | 0.00 | 78 | 1017.8 |
| 20260901194522 | 68 | 341 | 8.0 | 15.0 | 0.00 | 0.00 | 0.00 | 77 | 1017.6 |
| 20260901193539 | 68 | 341 | 9.0 | 15.0 | 0.00 | 0.00 | 0.00 | 76 | 1017.7 |
| 20260901192541 | 69 | 343 | 11.0 | 20.0 | 0.00 | 0.00 | 0.00 | 76 | 1017.6 |
| 20260901191517 | 69 | 338 | 12.0 | 17.0 | 0.00 | 0.00 | 0.00 | 76 | 1017.7 |
| 20260901190517 | 69 | 328 | 7.0 | 13.0 | 0.00 | 0.00 | 0.00 | 75 | 1017.7 |
| 20260901185518 | 70 | 317 | 9.0 | 15.0 | 0.00 | 0.00 | 0.00 | 75 | 1017.7 |
| 20260901184522 | 70 | 322 | 10.0 | 18.0 | 0.00 | 0.00 | 0.00 | 75 | 1017.7 |
| 20260901183538 | 70 | 323 | 9.0 | 16.0 | 0.00 | 0.00 | 0.00 | 75 | 1017.6 |
| 20260901182521 | 70 | 320 | 11.0 | 16.0 | 0.00 | 0.00 | 0.00 | 75 | 1017.5 |
| 20260901181537 | 70 | 324 | 10.0 | 17.0 | 0.00 | 0.00 | 0.00 | 75 | 1017.5 |
| 20260901180521 | 69 | 336 | 9.0 | 13.0 | 0.00 | 0.00 | 0.00 | 75 | 1017.4 |
| 20260901175518 | 69 | 339 | 10.0 | 13.0 | 0.00 | 0.00 | 0.00 | 75 | 1017.3 |
| 20260901174539 | 70 | 340 | 7.0 | 13.0 | 0.00 | 0.00 | 0.00 | 75 | 1017.3 |
| 20260901173541 | 70 | 319 | 8.0 | 13.0 | 0.00 | 0.00 | 0.00 | 74 | 1017.1 |
| 20260901172542 | 70 | 325 | 9.0 | 17.0 | 0.00 | 0.00 | 0.00 | 73 | 1016.9 |
| 20260901171518 | 71 | 313 | 14.0 | 26.0 | 0.00 | 0.00 | 0.00 | 73 | 1016.8 |
| 20260901170520 | 71 | 306 | 11.0 | 17.0 | 0.00 | 0.00 | 0.00 | 73 | 1016.7 |
| 20260901165517 | 71 | 306 | 11.0 | 16.0 | 0.00 | 0.00 | 0.00 | 73 | 1016.7 |
| 20260901164521 | 71 | 315 | 9.0 | 16.0 | 0.00 | 0.00 | 0.00 | 72 | 1016.6 |
| 20260901163518 | 71 | 315 | 11.0 | 20.0 | 0.00 | 0.00 | 0.00 | 72 | 1016.5 |
| 20260901162539 | 72 | 303 | 11.0 | 16.0 | 0.00 | 0.00 | 0.00 | 72 | 1016.4 |
| 20260901161517 | 72 | 329 | 9.0 | 16.0 | 0.00 | 0.00 | 0.00 | 72 | 1016.5 |
| 20260901160522 | 72 | 322 | 9.0 | 21.0 | 0.00 | 0.00 | 0.00 | 71 | 1016.4 |
| 20260901155539 | 72 | 306 | 13.0 | 23.0 | 0.00 | 0.00 | 0.00 | 72 | 1016.4 |
| 20260901154541 | 72 | 338 | 12.0 | 23.0 | 0.00 | 0.00 | 0.00 | 72 | 1016.3 |
| 20260901153518 | 72 | 304 | 18.0 | 25.0 | 0.00 | 0.00 | 0.00 | 71 | 1016.3 |
| 20260901152522 | 72 | 312 | 15.0 | 26.0 | 0.00 | 0.00 | 0.00 | 71 | 1016.2 |
| 20260901151516 | 73 | 323 | 14.0 | 20.0 | 0.00 | 0.00 | 0.00 | 70 | 1016.2 |
| 20260901150519 | 73 | 310 | 20.0 | 34.0 | 0.00 | 0.00 | 0.00 | 70 | 1016.2 |
| 20260901145518 | 74 | 318 | 17.0 | 27.0 | 0.00 | 0.00 | 0.00 | 68 | 1016.1 |
| 20260901144522 | 74 | 307 | 26.0 | 48.0 | 0.00 | 0.00 | 0.00 | 68 | 1016.1 |
| 20260901143516 | 74 | 313 | 24.0 | 37.0 | 0.00 | 0.00 | 0.00 | 68 | 1016.1 |
| 20260901142521 | 73 | 303 | 27.0 | 36.0 | 0.00 | 0.00 | 0.00 | 69 | 1016.2 |
| 20260901141518 | 74 | 298 | 25.0 | 39.0 | 0.00 | 0.00 | 0.00 | 68 | 1016.2 |
| 20260901140520 | 75 | 294 | 27.0 | 49.0 | 0.00 | 0.00 | 0.00 | 67 | 1016.1 |
| 20260901135519 | 76 | 302 | 30.0 | 43.0 | 0.00 | 0.00 | 0.00 | 65 | 1015.9 |
| 20260901134521 | 77 | 301 | 26.0 | 38.0 | 0.00 | 0.00 | 0.00 | 65 | 1015.8 |
| 20260901133518 | 77 | 294 | 25.0 | 31.0 | 0.00 | 0.00 | 0.00 | 65 | 1015.8 |
| 20260901132517 | 77 | 308 | 22.0 | 40.0 | 0.00 | 0.00 | 0.00 | 64 | 1015.8 |
| 20260901131517 | 76 | 296 | 26.0 | 51.0 | 0.00 | 0.00 | 0.00 | 66 | 1015.8 |
| 20260901130522 | 75 | 282 | 36.0 | 50.0 | 0.00 | 0.00 | 0.00 | 66 | 1015.9 |
| 20260901125517 | 74 | 285 | 32.0 | 42.0 | 0.00 | 0.00 | 0.00 | 68 | 1015.8 |
| 20260901124522 | 74 | 291 | 29.0 | 42.0 | 0.00 | 0.00 | 0.00 | 68 | 1015.7 |
| 20260901123518 | 74 | 299 | 27.0 | 40.0 | 0.00 | 0.00 | 0.00 | 67 | 1015.8 |
| 20260901122601 | 75 | 293 | 25.0 | 39.0 | 0.00 | 0.00 | 0.00 | 66 | 1015.8 |
| 20260901121517 | 75 | 283 | 23.0 | 35.0 | 0.00 | 0.00 | 0.00 | 63 | 1015.6 |
| 20260901120517 | 76 | 288 | 18.0 | 23.0 | 0.00 | 0.00 | 0.00 | 62 | 1015.6 |
| 20260901115518 | 76 | 293 | 19.0 | 30.0 | 0.00 | 0.00 | 0.00 | 62 | 1015.7 |
| 20260901114522 | 76 | 286 | 24.0 | 37.0 | 0.00 | 0.00 | 0.00 | 61 | 1015.8 |
| 20260901113517 | 77 | 273 | 27.0 | 41.0 | 0.00 | 0.00 | 0.00 | 60 | 1015.6 |
| 20260901112521 | 77 | 277 | 27.0 | 40.0 | 0.00 | 0.00 | 0.00 | 58 | 1015.5 |
| 20260901111518 | 78 | 302 | 15.0 | 26.0 | 0.00 | 0.00 | 0.00 | 57 | 1015.3 |
| 20260901110522 | 78 | 294 | 12.0 | 21.0 | 0.00 | 0.00 | 0.00 | 57 | 1015.2 |
| 20260901105517 | 78 | 255 | 17.0 | 24.0 | 0.00 | 0.00 | 0.00 | 56 | 1015.3 |
| 20260901104557 | 78 | 257 | 20.0 | 28.0 | 0.00 | 0.00 | 0.00 | 56 | 1015.4 |
| 20260901103520 | 78 | 237 | 19.0 | 25.0 | 0.00 | 0.00 | 0.00 | 55 | 1015.2 |
| 20260901102517 | 78 | 241 | 16.0 | 21.0 | 0.00 | 0.00 | 0.00 | 54 | 1015.1 |
| 20260901101522 | 78 | 233 | 21.0 | 29.0 | 0.00 | 0.00 | 0.00 | 52 | 1015.1 |
| 20260901100522 | 79 | 219 | 17.0 | 23.0 | 0.00 | 0.00 | 0.00 | 50 | 1015.1 |
| 20260901095517 | 79 | 251 | 17.0 | 26.0 | 0.00 | 0.00 | 0.00 | 48 | 1015.0 |
| 20260901094518 | 79 | 256 | 18.0 | 26.0 | 0.00 | 0.00 | 0.00 | 48 | 1015.1 |
| 20260901093518 | 79 | 250 | 16.0 | 24.0 | 0.00 | 0.00 | 0.00 | 49 | 1014.9 |
| 20260901092521 | 78 | 223 | 17.0 | 24.0 | 0.00 | 0.00 | 0.00 | 48 | 1014.9 |
| 20260901091518 | 78 | 203 | 12.0 | 18.0 | 0.00 | 0.00 | 0.00 | 49 | 1014.8 |
| 20260901090522 | 77 | 171 | 10.0 | 13.0 | 0.00 | 0.00 | 0.00 | 51 | 1014.8 |
| 20260901085519 | 77 | 124 | 8.0 | 16.0 | 0.00 | 0.00 | 0.00 | 52 | 1014.6 |
| 20260901084522 | 77 | 125 | 8.0 | 11.0 | 0.00 | 0.00 | 0.00 | 52 | 1014.7 |
| 20260901083517 | 77 | 153 | 7.0 | 12.0 | 0.00 | 0.00 | 0.00 | 51 | 1014.8 |
| 20260901082542 | 77 | 136 | 11.0 | 18.0 | 0.00 | 0.00 | 0.00 | 50 | 1014.8 |
| 20260901081518 | 77 | 123 | 13.0 | 22.0 | 0.00 | 0.00 | 0.00 | 50 | 1014.7 |
| 20260901080523 | 77 | 168 | 13.0 | 21.0 | 0.00 | 0.00 | 0.00 | 49 | 1014.7 |
| 20260901075516 | 76 | 128 | 13.0 | 28.0 | 0.00 | 0.00 | 0.00 | 50 | 1014.6 |
| 20260901074541 | 76 | 124 | 16.0 | 26.0 | 0.00 | 0.00 | 0.00 | 50 | 1014.4 |
| 20260901073517 | 76 | 134 | 19.0 | 32.0 | 0.00 | 0.00 | 0.00 | 50 | 1014.3 |
| 20260901072521 | 76 | 127 | 16.0 | 23.0 | 0.00 | 0.00 | 0.00 | 49 | 1014.4 |
| 20260901071518 | 75 | 126 | 16.0 | 26.0 | 0.00 | 0.00 | 0.00 | 51 | 1014.4 |
| 20260901070522 | 74 | 112 | 17.0 | 25.0 | 0.00 | 0.00 | 0.00 | 53 | 1014.5 |
| 20260901065518 | 74 | 114 | 18.0 | 29.0 | 0.00 | 0.00 | 0.00 | 53 | 1014.4 |
| 20260901064521 | 73 | 109 | 18.0 | 28.0 | 0.00 | 0.00 | 0.00 | 54 | 1014.4 |
| 20260901063517 | 72 | 111 | 14.0 | 26.0 | 0.00 | 0.00 | 0.00 | 57 | 1014.3 |
| 20260901062521 | 72 | 101 | 16.0 | 21.0 | 0.00 | 0.00 | 0.00 | 57 | 1014.2 |
| 20260901061518 | 72 | 107 | 16.0 | 23.0 | 0.00 | 0.00 | 0.00 | 56 | 1014.3 |